Location: *
(33.3200°N, 8.3381°W)
Time: 01:14:33
(UTC+00:00)

NOSS 3-4 (A) - Pass Details

Date: 09 April 2020
Orbit: 892 x 1320 km, 63.4° (Epoch: 01 June)

Event Time Altitude Azimuth Distance (km) Brightness Sun altitude
Rises 21:17:34 0° 323° (NW) 3,946 7.7 -27.6°
Reaches altitude 10° 21:20:13 10° 319° (NW) 3,044 7.0 -28.1°
Maximum altitude 21:27:19 53° 245° (WSW) 1,472 4.5 -29.3°
Enters shadow 21:30:04 38° 193° (SSW) 1,831 4.7 -29.8°
